FW6799 Weather Reports


time (UTC)temp
C
wind
direction
speed
KPH
gust
KPH
rain 1hr
cm
rain 24hr
cm
rain mn
cm
humidity
%
barometer
mb
20260509034609 24 92 17.7 33.8 0.00 0.00 0.00 25 1019.4
20260509033052 24 77 16.1 32.2 0.00 0.00 0.00 25 1019.6
20260509031553 24 66 17.7 32.2 0.00 0.00 0.00 25 1019.7
20260509024552 23 108 24.1 30.6 0.00 0.00 0.00 25 1020.4
20260509023140 22 103 17.7 29.0 0.00 0.00 0.00 25 1020.8
20260509021608 22 83 16.1 32.2 0.00 0.00 0.00 26 1021.0
20260509020050 22 88 19.3 32.2 0.00 0.00 0.00 26 1021.1
20260509014646 21 77 17.7 30.6 0.00 0.00 0.00 26 1021.2
20260509013103 21 100 17.7 29.0 0.00 0.00 0.00 27 1021.3
20260509011605 20 131 17.7 33.8 0.00 0.00 0.00 28 1021.4
20260509010149 20 102 24.1 37.0 0.00 0.00 0.00 29 1021.4
20260509004633 19 79 17.7 30.6 0.00 0.00 0.00 29 1021.3
20260509003111 18 92 22.5 33.8 0.00 0.00 0.00 31 1021.4
20260509000201 17 96 14.5 29.0 0.00 0.00 0.00 34 1021.4
20260508190055 16 106 11.3 19.3 0.00 0.00 0.00 36 1019.7
20260508184713 16 63 12.9 20.9 0.00 0.00 0.00 36 1019.8
20260508183138 16 93 12.9 20.9 0.00 0.00 0.00 36 1019.8
20260508181850 17 85 17.7 24.1 0.00 0.00 0.00 35 1019.8
20260508180324 17 99 14.5 24.1 0.00 0.00 0.00 35 1019.8
20260508173407 17 95 16.1 22.5 0.00 0.00 0.00 34 1020.1
20260508171601 17 113 14.5 20.9 0.00 0.00 0.00 34 1020.2
20260508161558 17 101 8.0 16.1 0.00 0.00 0.00 35 1020.1
20260508160108 17 116 8.0 14.5 0.00 0.00 0.00 35 1020.1
20260508154815 17 105 4.8 12.9 0.00 0.00 0.00 36 1020.1
20260508153123 17 120 8.0 16.1 0.00 0.00 0.00 35 1020.1
20260508151839 17 116 6.4 12.9 0.00 0.00 0.00 36 1020.2
20260508151621 17 116 6.4 12.9 0.00 0.00 0.00 36 1020.2
20260508150145 17 145 4.8 14.5 0.00 0.00 0.00 35 1020.3
20260508144611 17 126 6.4 14.5 0.00 0.00 0.00 35 1020.3
20260508143125 17 126 6.4 16.1 0.00 0.00 0.00 35 1020.3
20260508141555 17 135 4.8 11.3 0.00 0.00 0.00 36 1020.2
20260508140107 18 164 6.4 14.5 0.00 0.00 0.00 34 1020.3
20260508134614 18 139 6.4 14.5 0.00 0.00 0.00 34 1020.4
20260508133150 18 112 3.2 6.4 0.00 0.00 0.00 33 1020.4
20260508131555 18 93 3.2 12.9 0.00 0.00 0.00 33 1020.6
20260508130103 18 93 6.4 11.3 0.00 0.00 0.00 33 1020.3
20260508124608 19 98 9.7 14.5 0.00 0.00 0.00 32 1020.4
20260508123049 19 62 8.0 14.5 0.00 0.00 0.00 31 1020.3
20260508121551 20 93 11.3 16.1 0.00 0.00 0.00 31 1020.0
20260508120107 20 103 8.0 12.9 0.00 0.00 0.00 31 1019.9
20260508114551 20 106 9.7 14.5 0.00 0.00 0.00 30 1020.0
20260508113100 20 99 9.7 14.5 0.00 0.00 0.00 29 1019.8
20260508111650 20 105 6.4 11.3 0.00 0.00 0.00 29 1019.8
20260508110118 21 104 3.2 14.5 0.00 0.00 0.00 29 1019.8
20260508104709 21 109 4.8 17.7 0.00 0.00 0.00 27 1019.6
20260508103050 22 87 8.0 19.3 0.00 0.00 0.00 27 1019.3
20260508101553 22 137 12.9 17.7 0.00 0.00 0.00 26 1019.1
20260508100051 22 168 9.7 20.9 0.00 0.00 0.00 26 1019.1
20260508094554 23 99 14.5 22.5 0.00 0.00 0.00 25 1018.8
20260508093056 23 116 11.3 22.5 0.00 0.00 0.00 25 1018.9
20260508091550 23 92 16.1 27.4 0.00 0.00 0.00 25 1018.9
20260508090108 24 92 19.3 29.0 0.00 0.00 0.00 24 1018.4
20260508084552 25 90 19.3 29.0 0.00 0.00 0.00 23 1018.3
20260508083049 25 119 14.5 27.4 0.00 0.00 0.00 23 1018.3
20260508081553 25 120 19.3 32.2 0.00 0.00 0.00 23 1018.3
20260508080051 25 83 20.9 33.8 0.00 0.00 0.00 22 1018.1
20260508074554 26 93 16.1 29.0 0.00 0.00 0.00 23 1018.1
20260508073102 26 126 17.7 32.2 0.00 0.00 0.00 22 1018.0
20260508071547 26 120 17.7 27.4 0.00 0.00 0.00 22 1017.8
20260508070056 26 107 22.5 35.4 0.00 0.00 0.00 23 1017.8
20260508064553 26 93 14.5 35.4 0.00 0.00 0.00 23 1017.9
20260508063054 26 70 14.5 38.6 0.00 0.00 0.00 23 1018.0
20260508061551 26 105 14.5 38.6 0.00 0.00 0.00 23 1018.0
20260508060051 26 90 20.9 37.0 0.00 0.00 0.00 23 1018.4
20260508054625 26 118 22.5 32.2 0.00 0.00 0.00 23 1018.5
20260508053249 26 35 24.1 37.0 0.00 0.00 0.00 22 1018.5
20260508052111 26 93 14.5 43.5 0.00 0.00 0.00 23 1018.7
20260508050054 26 47 19.3 35.4 0.00 0.00 0.00 25 1019.1
20260508044557 26 71 16.1 37.0 0.00 0.00 0.00 25 1019.4
20260508043049 26 114 17.7 33.8 0.00 0.00 0.00 25 1019.8
20260508041630 25 101 22.5 38.6 0.00 0.00 0.00 26 1020.1
20260508040057 25 74 17.7 40.2 0.00 0.00 0.00 26 1020.4